Augusta Regional Airport Airport (AGS)

Airport Diagram
Current Weather/Forecast (VFR Conditions)
METAR KAGS 152353Z 22006KT 10SM CLR 25/08 A3000 RMK AO2 SLP159 T02500083 10306 20250 53005
TAF KAGS 152336Z 1600/1624 24007KT P6SM SKC FM160400 VRB04KT P6SM SKC FM161500 25006KT P6SM FEW050 BKN120

All Charts
General
Chart Name Download
AIRPORT DIAGRAM
TAKEOFF MINIMUMS
ALTERNATE MINIMUMS
HOT SPOT

Departures
Chart Name Download
CHATT SIX (RNAV)
DOVER FIVE (RNAV)
JUNPR SIX (RNAV)
KAOLN SIX (RNAV)
RDBUD FOUR (RNAV)
SAMMI FOUR (RNAV)

Arrivals
Chart Name Download
STUGE THREE
STUGE THREE, CONT.1
STWRT THREE

Approaches
Chart Name Download
ILS OR LOC RWY 17
ILS OR LOC RWY 35
RNAV (GPS) RWY 17
RNAV (GPS) RWY 26
RNAV (GPS) RWY 35
RNAV (GPS) Y RWY 08
RNAV (GPS) Z RWY 08


Inbound Traffic (Arrivals)

No inbound traffic.


Outbound Traffic (Departures)

No outbound traffic.